TimeEST,TemperatureF,Dew PointF,Humidity,Sea Level PressureIn,VisibilityMPH,Wind Direction,Wind SpeedMPH,Gust SpeedMPH,PrecipitationIn,Events,Conditions,WindDirDegrees,DateUTC
12:01 AM,14.0,3.0,62,30.13,4.0,North,19.6,29.9,0.00,Snow,Light Snow,360,2014-01-03 05:01:00
12:27 AM,15.1,3.9,61,30.14,2.5,North,20.7,28.8,0.00,Snow,Light Snow,360,2014-01-03 05:27:00
12:44 AM,15.1,6.1,68,30.16,4.0,North,21.9,29.9,0.00,Snow,Light Snow,350,2014-01-03 05:44:00
12:51 AM,14.0,6.1,71,30.20,4.0,NNW,21.9,28.8,0.00,Snow,Light Snow,340,2014-01-03 05:51:00
1:51 AM,14.0,5.0,67,30.23,6.0,North,17.3,25.3,0.00,Snow,Light Snow,350,2014-01-03 06:51:00
2:51 AM,14.0,6.1,71,30.27,3.0,North,16.1,-,0.00,Snow,Light Snow,350,2014-01-03 07:51:00
2:59 AM,14.0,6.1,71,30.23,2.5,North,15.0,21.9,0.00,Snow,Light Snow,350,2014-01-03 07:59:00
3:05 AM,12.9,7.0,77,30.24,1.0,NNW,13.8,-,0.00,Snow,Light Snow,340,2014-01-03 08:05:00
3:14 AM,12.9,7.0,77,30.24,1.2,NW,17.3,-,0.00,Snow,Light Snow,310,2014-01-03 08:14:00
3:22 AM,12.9,6.1,74,30.25,1.8,NW,13.8,-,0.00,Snow,Light Snow,310,2014-01-03 08:22:00
3:29 AM,12.9,6.1,74,30.25,3.0,NW,12.7,-,0.00,Snow,Light Snow,320,2014-01-03 08:29:00
3:51 AM,12.9,5.0,71,30.30,6.0,NNW,15.0,-,0.00,Snow,Light Snow,330,2014-01-03 08:51:00
4:51 AM,12.9,5.0,71,30.33,4.0,NNW,12.7,-,0.00,Snow,Light Snow,330,2014-01-03 09:51:00
5:51 AM,12.0,5.0,73,30.35,6.0,NNW,9.2,-,0.00,Snow,Light Snow,340,2014-01-03 10:51:00
6:51 AM,12.0,5.0,73,30.38,6.0,North,12.7,-,0.00,Snow,Light Snow,350,2014-01-03 11:51:00
7:51 AM,12.0,3.9,70,30.41,9.0,North,16.1,19.6,0.00,Snow,Light Snow,350,2014-01-03 12:51:00
8:51 AM,12.0,5.0,73,30.44,5.0,NNW,13.8,-,0.00,Snow,Light Snow,330,2014-01-03 13:51:00
9:20 AM,12.0,5.0,73,30.40,1.8,NNW,10.4,-,0.00,Snow,Light Snow,340,2014-01-03 14:20:00
9:29 AM,12.0,5.0,73,30.40,3.0,NW,10.4,-,0.00,Snow,Light Snow,320,2014-01-03 14:29:00
9:44 AM,12.0,5.0,73,30.40,1.8,NW,11.5,-,0.00,Snow,Light Snow,320,2014-01-03 14:44:00
9:51 AM,12.0,5.0,73,30.45,2.5,NW,10.4,-,0.00,Snow,Light Snow,310,2014-01-03 14:51:00
10:15 AM,12.0,3.9,70,30.42,6.0,NW,9.2,-,0.00,Snow,Light Snow,320,2014-01-03 15:15:00
10:42 AM,12.9,5.0,71,30.43,1.8,NW,6.9,-,0.00,Snow,Light Snow,320,2014-01-03 15:42:00
10:51 AM,12.9,5.0,71,30.48,2.0,NNW,8.1,-,0.00,Snow,Light Snow,330,2014-01-03 15:51:00
11:38 AM,12.9,6.1,74,30.42,1.5,WNW,4.6,-,0.00,Snow,Light Snow,300,2014-01-03 16:38:00
11:51 AM,12.0,6.1,77,30.47,1.5,WSW,6.9,-,0.00,Snow,Light Snow,250,2014-01-03 16:51:00
12:26 PM,12.9,5.0,71,30.42,3.0,West,6.9,-,0.00,Snow,Light Snow,280,2014-01-03 17:26:00
12:42 PM,12.9,5.0,71,30.42,9.0,WSW,8.1,-,0.00,Snow,Light Snow,240,2014-01-03 17:42:00
12:51 PM,12.0,3.9,70,30.46,6.0,WSW,9.2,-,0.00,Snow,Light Snow,250,2014-01-03 17:51:00
1:39 PM,12.0,1.9,64,30.41,10.0,WSW,6.9,-,0.00,,Partly Cloudy,240,2014-01-03 18:39:00
1:51 PM,12.9,3.9,67,30.45,10.0,WSW,6.9,-,0.00,,Scattered Clouds,250,2014-01-03 18:51:00
2:51 PM,12.9,-0.0,56,30.44,10.0,WSW,6.9,-,N/A,,Partly Cloudy,240,2014-01-03 19:51:00
3:51 PM,12.0,-0.0,59,30.47,10.0,SW,6.9,-,N/A,,Partly Cloudy,230,2014-01-03 20:51:00
4:51 PM,10.9,-2.0,56,30.47,10.0,SW,6.9,-,N/A,,Partly Cloudy,230,2014-01-03 21:51:00
5:51 PM,10.9,-2.0,56,30.46,10.0,SSW,5.8,-,N/A,,Clear,200,2014-01-03 22:51:00
6:51 PM,9.0,-2.0,61,30.43,10.0,South,6.9,-,N/A,,Clear,180,2014-01-03 23:51:00
7:51 PM,8.1,-2.0,64,30.43,10.0,SSE,8.1,-,N/A,,Scattered Clouds,160,2014-01-04 00:51:00
8:51 PM,12.0,-0.9,56,30.40,10.0,South,10.4,-,N/A,,Overcast,190,2014-01-04 01:51:00
9:51 PM,12.9,-0.9,54,30.37,10.0,South,11.5,-,N/A,,Overcast,190,2014-01-04 02:51:00
10:51 PM,12.9,-0.9,54,30.34,10.0,South,15.0,21.9,N/A,,Overcast,190,2014-01-04 03:51:00
11:51 PM,14.0,-0.0,54,30.31,10.0,South,16.1,24.2,N/A,,Overcast,190,2014-01-04 04:51:00